This demonstration page uses our WeatherBlox Daily Observations layout. Learn more.

Left ArrowRight Arrow

44.89941, -97.11507

Hourly Observations for October 21, 2021

Temp ( °F °C ) Dew Point ( °F °C ) Humidity (%) Winds ( mph kmh ) Pressure ( in mb ) Visibility ( mi km ) Precip ( " mm )
12:53 am 00:53 Cloudy 37 2.8 35 1.7 93 93 N 18 30 30.08 1019 10 16 0.00 0.00
1:37 am 01:37 Cloudy 37 2.8 34 1.1 89 89 N 16 26 30.10 1019 10 16 0.00 0.00
1:53 am 01:53 Cloudy 37 2.8 35 1.7 93 93 N 15 24 30.09 1019 10 16 0.00 0.00
2:19 am 02:19 Cloudy 37 2.8 35 1.7 93 93 N 15 24 30.11 1020 10 16 0.00 0.00
2:40 am 02:40 Cloudy 37 2.8 35 1.7 93 93 N 14 22 30.11 1020 10 16 0.00 0.00
2:53 am 02:53 Cloudy 37 2.8 34 1.1 89 89 N 12 19 30.10 1019 10 16 0.00 0.00
3:45 am 03:45 Mostly Cloudy 36 2.2 34 1.1 93 93 NNW 10 17 30.12 1020 10 16 0.00 0.00
3:53 am 03:53 Mostly Cloudy 36 2.2 34 1.1 93 93 NNW 10 17 30.11 1020 10 16 0.00 0.00
4:31 am 04:31 Cloudy 36 2.2 34 1.1 93 93 NNW 12 19 30.14 1021 10 16 0.00 0.00
4:53 am 04:53 Cloudy 36 2.2 33 0.6 89 89 NNW 13 20 30.13 1020 10 16 0.00 0.00
5:11 am 05:11 Cloudy 36 2.2 33 0.6 89 89 NNW 14 22 30.15 1021 10 16 0.00 0.00
5:39 am 05:39 Cloudy 35 1.7 32 0 89 89 N 15 24 30.18 1022 10 16 0.00 0.00
5:53 am 05:53 Cloudy 34 1.1 32 0 92 92 N 14 22 30.16 1021 10 16 0.00 0.00
6:29 am 06:29 Partly Cloudy 32 0 31 -0.6 96 96 NNW 10 17 30.21 1023 10 16 0.00 0.00
6:43 am 06:43 Mostly Cloudy 33 0.6 31 -0.6 92 92 NNW 13 20 30.22 1023 10 16 0.00 0.00
6:53 am 06:53 Mostly Cloudy 32 0 30 -1.1 92 92 N 9 15 30.19 1022 10 16 0.00 0.00
7:11 am 07:11 Partly Cloudy 32 0 30 -1.1 92 92 NNW 12 19 30.23 1024 10 16 0.00 0.00
7:53 am 07:53 Sunny 30 -1.1 28 -2.2 92 92 N 13 20 30.19 1023 10 16 0.00 0.00
8:53 am 08:53 Sunny 32 0 29 -1.7 88 88 N 12 19 30.22 1023 10 16 0.00 0.00
9:53 am 09:53 Sunny 34 1.1 30 -1.1 85 85 N 10 17 30.23 1024 10 16 0.00 0.00
10:53 am 10:53 Sunny 38 3.3 32 0 79 79 N 13 20 30.23 1024 10 16 0.00 0.00
11:53 am 11:53 Sunny 41 5 33 0.6 73 73 N 10 17 30.24 1024 10 16 0.00 0.00
12:53 pm 12:53 Sunny 43 6.1 34 1.1 71 71 NNW 12 19 30.23 1024 10 16 0.00 0.00
1:53 pm 13:53 Sunny 45 7.2 32 0 61 61 NW 6 9 30.21 1023 10 16 0.00 0.00
2:53 pm 14:53 Sunny 45 7.2 34 1.1 66 66 NW 10 17 30.20 1023 10 16 0.00 0.00
3:53 pm 15:53 Sunny 46 7.8 31 -0.6 56 56 N 7 11 30.19 1023 10 16 0.00 0.00
4:53 pm 16:53 Sunny 46 7.8 31 -0.6 56 56 NNW 8 13 30.20 1023 10 16 0.00 0.00
5:53 pm 17:53 Sunny 42 5.6 32 0 68 68 N 9 15 30.20 1023 10 16 0.00 0.00
6:53 pm 18:53 Clear 36 2.2 29 -1.7 76 76 N 6 9 30.21 1023 10 16 0.00 0.00
7:53 pm 19:53 Clear 34 1.1 29 -1.7 82 82 Calm 30.22 1023 10 16 0.00 0.00
8:53 pm 20:53 Clear 35 1.7 30 -1.1 82 82 Calm 30.21 1023 10 16 0.00 0.00
9:53 pm 21:53 Clear 36 2.2 31 -0.6 82 82 Calm 30.18 1022 10 16 0.00 0.00
10:53 pm 22:53 Clear 36 2.2 31 -0.6 82 82 Calm 30.17 1022 10 16 0.00 0.00
11:53 pm 23:53 Clear 37 2.8 32 0 82 82 Calm 30.17 1022 10 16 0.00 0.00

Powered by AerisWeather